TimeCDT,TemperatureF,Dew PointF,Humidity,Sea Level PressureIn,VisibilityMPH,Wind Direction,Wind SpeedMPH,Gust SpeedMPH,PrecipitationIn,Events,Conditions,WindDirDegrees,DateUTC
12:53 AM,66.0,53.1,63,29.83,10.0,East,4.6,-,N/A,,Clear,80,2013-09-23 05:53:00
1:53 AM,64.9,54.0,68,29.83,10.0,East,5.8,-,N/A,,Clear,80,2013-09-23 06:53:00
2:53 AM,63.0,54.0,72,29.84,10.0,East,4.6,-,N/A,,Clear,80,2013-09-23 07:53:00
3:53 AM,63.0,54.0,72,29.84,10.0,East,3.5,-,N/A,,Clear,90,2013-09-23 08:53:00
4:53 AM,63.0,55.0,75,29.84,10.0,Calm,Calm,-,N/A,,Clear,0,2013-09-23 09:53:00
5:53 AM,61.0,55.9,83,29.84,10.0,East,4.6,-,N/A,,Clear,100,2013-09-23 10:53:00
6:53 AM,62.1,55.0,78,29.84,10.0,ESE,3.5,-,N/A,,Clear,110,2013-09-23 11:53:00
7:53 AM,63.0,57.0,81,29.85,10.0,East,4.6,-,N/A,,Clear,90,2013-09-23 12:53:00
8:53 AM,69.1,57.9,68,29.86,10.0,East,6.9,-,N/A,,Clear,100,2013-09-23 13:53:00
9:53 AM,73.9,55.0,52,29.87,10.0,ESE,9.2,-,N/A,,Clear,110,2013-09-23 14:53:00
10:53 AM,75.9,54.0,46,29.87,10.0,SE,5.8,-,N/A,,Clear,130,2013-09-23 15:53:00
11:53 AM,80.1,54.0,40,29.86,10.0,Variable,6.9,-,N/A,,Clear,0,2013-09-23 16:53:00
12:53 PM,82.0,53.1,37,29.85,10.0,Variable,3.5,-,N/A,,Clear,0,2013-09-23 17:53:00
1:53 PM,84.0,53.1,34,29.81,10.0,ESE,5.8,-,N/A,,Clear,110,2013-09-23 18:53:00
2:53 PM,84.9,53.1,33,29.79,10.0,East,4.6,-,N/A,,Clear,100,2013-09-23 19:53:00
3:53 PM,87.1,55.0,33,29.77,10.0,East,4.6,-,N/A,,Clear,90,2013-09-23 20:53:00
4:53 PM,86.0,55.9,36,29.75,10.0,SSE,4.6,-,N/A,,Clear,160,2013-09-23 21:53:00
5:53 PM,86.0,57.9,38,29.76,10.0,SE,8.1,-,N/A,,Clear,130,2013-09-23 22:53:00
6:53 PM,84.0,60.1,44,29.77,10.0,ESE,4.6,-,N/A,,Clear,120,2013-09-23 23:53:00
7:53 PM,79.0,63.0,58,29.78,10.0,SE,5.8,-,N/A,,Clear,140,2013-09-24 00:53:00
8:53 PM,78.1,63.0,60,29.80,10.0,SE,4.6,-,N/A,,Clear,140,2013-09-24 01:53:00
9:53 PM,75.9,64.0,67,29.82,10.0,Calm,Calm,-,N/A,,Clear,0,2013-09-24 02:53:00
10:53 PM,77.0,62.1,60,29.83,10.0,Calm,Calm,-,N/A,,Clear,0,2013-09-24 03:53:00
11:53 PM,73.9,66.0,76,29.84,10.0,ESE,4.6,-,N/A,,Scattered Clouds,110,2013-09-24 04:53:00